MEV-2

Last updated on Thu Oct 30 2025 00:02:51 GMT+0000 (Coordinated Universal Time)

1 46113U 20056B 25302.25684667 .00000000 00000+0 00000+0 0 9992 2 46113 0.0092 123.0416 0000676 117.7298 248.5965 1.00272599 19171
UTC large
Height (km)
Speed (km/s)
/
Latitude / Longitude
Inclination (degrees)
Orbital Period (minutes)
Azimuth
Elevation
Range (km)
Doppler Factor

Next 0 passes for location: London (51.5072 / 0.1276)

Sorry there are no passes over London.